Location: Newark
(42.8334°N, 7.7197°W)
Time: 10:24:05
(UTC+00:00)

ISS - Visible Passes

Search period start: 22 November 2019 00:00
Search period end: 02 December 2019 00:00
Orbit: 412 x 421 km, 51.6° (Epoch: 22 November)

Date Brightness Start Highest point End Pass type
(mag) Time Alt. Az. Time Alt. Az. Time Alt. Az.
22 Nov -3.2 19:00:06 10° SW 19:02:48 54° SW 19:02:48 54° SW visible
23 Nov -3.2 18:11:53 10° SSW 18:15:06 44° SE 18:16:34 26° E visible
23 Nov -0.5 19:48:51 10° W 19:49:29 14° W 19:49:29 14° W visible
24 Nov -2.9 19:00:09 10° WSW 19:03:09 44° NW 19:03:09 44° NW visible
25 Nov -3.6 18:11:34 10° WSW 18:14:54 70° NNW 18:16:46 24° NE visible
25 Nov -0.4 19:49:25 10° WNW 19:49:40 11° WNW 19:49:40 11° WNW visible
26 Nov -2.0 19:00:35 10° WNW 19:03:13 25° NNW 19:03:13 25° NNW visible
27 Nov -2.5 18:11:47 10° W 18:14:52 33° NNW 18:16:43 19° NNE visible
28 Nov -1.6 19:01:07 10° WNW 19:03:04 18° NNW 19:03:04 18° NNW visible
29 Nov -2.0 18:12:16 10° WNW 18:14:58 22° NNW 18:16:30 16° NNE visible
30 Nov -2.2 17:23:23 10° WNW 17:26:18 26° NNW 17:29:12 10° NE visible
30 Nov -1.4 19:01:25 10° NW 19:02:49 16° NNW 19:02:49 16° NNW visible
01 Dec -1.8 18:12:41 10° NW 18:15:06 18° N 18:16:14 16° NNE visible
